Location: Unspecified
(0.0000°N, 0.0000°E)
Time: 00:15:43
(UTC+00:00)

deb Explorer IX - Pass Details

Date: 19 December 2018
Orbit: 538 x 1115 km, 38.8° (Epoch: 17 January)

Event Time Altitude Azimuth Distance (km) Brightness Sun altitude
Rises 14:29:14 0° 260° (W) 3,592 ? 46.3°
Reaches altitude 10° 14:33:01 10° 280° (W) 2,520 ? 45.5°
Maximum altitude 14:36:36 16° 317° (NW) 1,979 ? 44.8°
Drops below altitude 10° 14:39:54 10° 355° (N) 2,264 ? 44.1°
Sets 14:43:03 0° 17° (NNE) 3,064 ? 43.4°
